Weather in Klepka

Russia / Magadan District     59°45′14″N   151°29′27″E
temp.,
°C
wind,
m/s
gust,
m/s
humid.,
%
clouds,
%
prec.,
mm/h
press.,
hPa
HPBL,
m
19 september, sun
sun1923:00+9e71282100 0.0 1007346
02:00+9e91487100 0.0 1005385
05:00+9e111686100 0.1 1002601
08:00+8ese111791100 2.7 1001683
11:00+8sse4594100 6.3 1003327
14:00+8s3492100 2.1 1003355
17:00+9sse337997 2.2 1003600
20:00+5e119090 0.1 100410
20 september, mon
mon2023:00+5ene2288100 0.1 100410
02:00+5ene2289100 0.0 100311
05:00+5ne2289100 0.0 100214
08:00+6ne228590 0.0 100266
11:00+10ne3469100 0.1 1001563
14:00+9ene3478100 1.8 1000828
17:00+6ne3489100 4.1 1001311
20:00+6nne3491100 2.1 1002300
21 september, tue
tue2123:00+4nne3594100 2.3 1003258
02:00+4n3593100 2.8 1003243
05:00+5n4793100 5.6 1003290
08:00+4n4992100 1.6 1004348
11:00+4n4986100 1.8 1006398
14:00+6n5978100 0.1 1006437
17:00+5nne51187100 0.8 1008384
20:00+5n51082100 0.1 1011313
22 september, wed
wed2223:00+4n5979100 0.1 1012253
02:00+4n4977100 0.1 1013229
05:00+4n477797 0.1 1015179
08:00+5n497686 0.0 1017232
11:00+8nne576399 0.0 1018369
14:00+10nne356097 0.0 1018561
17:00+11nne345840 0.0 1018549
20:00+5n338225 0.0 102119
23 september, thu
thu2323:00+3nne328356 0.0 102213
02:00+2nne22829 0.0 102211
05:00+2nne22815 0.0 102311
08:00+4nne227320 0.0 102343
11:00+9nne12555 0.0 1023387
14:00+12w12480 0.0 1022767
17:00+12sw22540 0.0 1022292
20:00+5nw11810 0.0 102410